Time,TemperatureF,DewpointF,PressureIn,WindDirection,WindDirectionDegrees,WindSpeedMPH,WindSpeedGustMPH,Humidity,HourlyPrecipIn,Conditions,Clouds,dailyrainin,SoftwareType,DateUTC
2013-02-09 00:00:00,37.6,34.4,30.30,NE,39,4.0,7.0,88,0.00,,,0.00,WeatherCatV1.02B3,2013-02-09 06:00:00,
2013-02-09 00:05:00,37.5,34.6,30.29,NE,40,5.0,5.0,89,0.00,,,0.00,WeatherCatV1.02B3,2013-02-09 06:05:00,
2013-02-09 00:10:00,37.4,34.5,30.29,NE,38,4.0,6.0,89,0.00,,,0.00,WeatherCatV1.02B3,2013-02-09 06:10:00,
2013-02-09 00:15:00,37.3,34.4,30.29,NNE,32,3.0,4.0,89,0.00,,,0.00,WeatherCatV1.02B3,2013-02-09 06:15:00,
2013-02-09 00:20:00,37.3,34.4,30.29,NNE,28,3.0,4.0,89,0.00,,,0.00,WeatherCatV1.02B3,2013-02-09 06:20:00,
2013-02-09 00:25:00,37.2,34.3,30.29,NE,34,2.0,4.0,89,0.00,,,0.00,WeatherCatV1.02B3,2013-02-09 06:25:00,
2013-02-09 00:30:00,37.2,34.3,30.29,NNE,30,3.0,6.0,89,0.00,,,0.00,WeatherCatV1.02B3,2013-02-09 06:30:00,
2013-02-09 00:35:00,37.3,34.4,30.29,NE,42,3.0,5.0,89,0.00,,,0.00,WeatherCatV1.02B3,2013-02-09 06:35:00,
2013-02-09 00:40:00,37.3,34.4,30.29,NE,44,4.0,4.0,89,0.00,,,0.00,WeatherCatV1.02B3,2013-02-09 06:40:00,
2013-02-09 00:45:00,37.2,34.0,30.29,NE,34,5.0,6.0,88,0.00,,,0.00,WeatherCatV1.02B3,2013-02-09 06:45:00,
2013-02-09 00:50:00,37.2,34.0,30.30,NE,40,3.0,5.0,88,0.00,,,0.00,WeatherCatV1.02B3,2013-02-09 06:50:00,
2013-02-09 00:55:00,37.3,34.1,30.30,NNE,29,5.0,6.0,88,0.00,,,0.00,WeatherCatV1.02B3,2013-02-09 06:55:00,
2013-02-09 01:00:00,37.3,34.1,30.30,NNE,25,5.0,5.0,88,0.00,,,0.00,WeatherCatV1.02B3,2013-02-09 07:00:00,
2013-02-09 01:05:00,37.3,34.1,30.30,NE,38,1.0,3.0,88,0.00,,,0.00,WeatherCatV1.02B3,2013-02-09 07:05:00,
2013-02-09 01:10:00,37.2,34.0,30.30,NE,34,2.0,3.0,88,0.00,,,0.00,WeatherCatV1.02B3,2013-02-09 07:10:00,
2013-02-09 01:15:00,37.1,33.9,30.30,NE,44,0.0,4.0,88,0.00,,,0.00,WeatherCatV1.02B3,2013-02-09 07:15:00,
2013-02-09 01:20:00,36.9,33.7,30.30,NE,44,0.0,1.0,88,0.00,,,0.00,WeatherCatV1.02B3,2013-02-09 07:20:00,
2013-02-09 01:25:00,36.8,33.6,30.30,NE,44,0.0,0.0,88,0.00,,,0.00,WeatherCatV1.02B3,2013-02-09 07:25:00,
2013-02-09 01:30:00,36.6,33.4,30.30,NE,44,0.0,0.0,88,0.00,,,0.00,WeatherCatV1.02B3,2013-02-09 07:30:00,
2013-02-09 01:35:00,36.4,33.5,30.30,NE,44,0.0,1.0,89,0.00,,,0.00,WeatherCatV1.02B3,2013-02-09 07:35:00,
2013-02-09 01:40:00,36.3,33.4,30.30,NE,44,0.0,0.0,89,0.00,,,0.00,WeatherCatV1.02B3,2013-02-09 07:40:00,
2013-02-09 01:45:00,36.2,33.3,30.30,NE,44,0.0,0.0,89,0.00,,,0.00,WeatherCatV1.02B3,2013-02-09 07:45:00,
2013-02-09 01:50:00,36.1,33.2,30.30,NE,44,0.0,0.0,89,0.00,,,0.00,WeatherCatV1.02B3,2013-02-09 07:50:00,
2013-02-09 01:55:00,36.0,33.1,30.30,NE,44,0.0,1.0,89,0.00,,,0.00,WeatherCatV1.02B3,2013-02-09 07:55:00,
2013-02-09 02:00:00,35.9,33.0,30.30,NE,44,0.0,0.0,89,0.00,,,0.00,WeatherCatV1.02B3,2013-02-09 08:00:00,
2013-02-09 02:05:00,35.7,33.1,30.29,NE,44,0.0,0.0,90,0.00,,,0.00,WeatherCatV1.02B3,2013-02-09 08:05:00,
2013-02-09 02:10:00,35.6,33.0,30.30,NE,44,0.0,0.0,90,0.00,,,0.00,WeatherCatV1.02B3,2013-02-09 08:10:00,
2013-02-09 02:15:00,35.4,32.8,30.30,NE,44,0.0,0.0,90,0.00,,,0.00,WeatherCatV1.02B3,2013-02-09 08:15:00,
2013-02-09 02:20:00,35.3,32.7,30.30,NE,44,0.0,0.0,90,0.00,,,0.00,WeatherCatV1.02B3,2013-02-09 08:20:00,
2013-02-09 02:25:00,35.3,32.7,30.30,NE,44,0.0,0.0,90,0.00,,,0.00,WeatherCatV1.02B3,2013-02-09 08:25:00,
2013-02-09 02:30:00,35.2,32.8,30.30,NE,44,0.0,0.0,91,0.00,,,0.00,WeatherCatV1.02B3,2013-02-09 08:30:00,
2013-02-09 02:35:00,35.1,32.7,30.30,NE,44,0.0,0.0,91,0.00,,,0.00,WeatherCatV1.02B3,2013-02-09 08:35:00,
2013-02-09 02:40:00,35.0,32.6,30.30,NE,44,0.0,0.0,91,0.00,,,0.00,WeatherCatV1.02B3,2013-02-09 08:40:00,
2013-02-09 02:45:00,34.8,32.4,30.30,NE,44,0.0,0.0,91,0.00,,,0.00,WeatherCatV1.02B3,2013-02-09 08:45:00,
2013-02-09 02:50:00,34.7,32.3,30.30,NE,44,0.0,0.0,91,0.00,,,0.00,WeatherCatV1.02B3,2013-02-09 08:50:00,
2013-02-09 02:55:00,34.7,32.3,30.30,NE,44,0.0,0.0,91,0.00,,,0.00,WeatherCatV1.02B3,2013-02-09 08:55:00,
2013-02-09 03:00:00,34.7,32.6,30.31,NE,44,0.0,0.0,92,0.00,,,0.00,WeatherCatV1.02B3,2013-02-09 09:00:00,
2013-02-09 03:05:00,34.7,32.6,30.31,NE,44,0.0,0.0,92,0.00,,,0.00,WeatherCatV1.02B3,2013-02-09 09:05:00,
2013-02-09 03:10:00,34.6,32.5,30.31,NE,44,0.0,0.0,92,0.00,,,0.00,WeatherCatV1.02B3,2013-02-09 09:10:00,
2013-02-09 03:15:00,34.5,32.4,30.31,NE,44,0.0,0.0,92,0.00,,,0.00,WeatherCatV1.02B3,2013-02-09 09:15:00,
2013-02-09 03:20:00,34.3,32.2,30.31,NE,44,0.0,0.0,92,0.00,,,0.00,WeatherCatV1.02B3,2013-02-09 09:20:00,
2013-02-09 03:25:00,34.2,32.1,30.31,NE,44,0.0,0.0,92,0.00,,,0.00,WeatherCatV1.02B3,2013-02-09 09:25:00,
2013-02-09 03:30:00,34.0,31.9,30.31,NE,44,0.0,0.0,92,0.00,,,0.00,WeatherCatV1.02B3,2013-02-09 09:30:00,
2013-02-09 03:35:00,33.9,31.8,30.31,NE,44,0.0,0.0,92,0.00,,,0.00,WeatherCatV1.02B3,2013-02-09 09:35:00,
2013-02-09 03:40:00,33.7,31.6,30.31,NE,44,0.0,0.0,92,0.00,,,0.00,WeatherCatV1.02B3,2013-02-09 09:40:00,
2013-02-09 03:45:00,33.4,31.3,30.31,NE,44,0.0,0.0,92,0.00,,,0.00,WeatherCatV1.02B3,2013-02-09 09:45:00,
2013-02-09 03:50:00,33.2,31.4,30.31,NE,44,0.0,0.0,93,0.00,,,0.00,WeatherCatV1.02B3,2013-02-09 09:50:00,
2013-02-09 03:55:00,33.0,31.2,30.31,NE,44,0.0,0.0,93,0.00,,,0.00,WeatherCatV1.02B3,2013-02-09 09:55:00,
2013-02-09 04:00:00,32.9,31.1,30.30,NE,44,0.0,0.0,93,0.00,,,0.00,WeatherCatV1.02B3,2013-02-09 10:00:00,
2013-02-09 04:05:00,33.1,31.6,30.31,NE,44,0.0,0.0,94,0.00,,,0.00,WeatherCatV1.02B3,2013-02-09 10:05:00,
2013-02-09 04:10:00,33.2,31.7,30.31,NE,44,0.0,0.0,94,0.00,,,0.00,WeatherCatV1.02B3,2013-02-09 10:10:00,
2013-02-09 04:15:00,33.5,32.0,30.31,NNE,28,0.0,0.0,94,0.00,,,0.00,WeatherCatV1.02B3,2013-02-09 10:15:00,
2013-02-09 04:20:00,33.7,32.2,30.31,NNE,30,0.0,3.0,94,0.00,,,0.00,WeatherCatV1.02B3,2013-02-09 10:20:00,
2013-02-09 04:25:00,33.9,32.4,30.31,NNE,30,0.0,1.0,94,0.00,,,0.00,WeatherCatV1.02B3,2013-02-09 10:25:00,
2013-02-09 04:30:00,34.1,32.6,30.32,NNE,18,0.0,0.0,94,0.00,,,0.00,WeatherCatV1.02B3,2013-02-09 10:30:00,
2013-02-09 04:35:00,34.1,32.3,30.31,NNE,29,0.0,2.0,93,0.00,,,0.00,WeatherCatV1.02B3,2013-02-09 10:35:00,
2013-02-09 04:40:00,34.2,32.4,30.31,NNE,32,3.0,3.0,93,0.00,,,0.00,WeatherCatV1.02B3,2013-02-09 10:40:00,
2013-02-09 04:45:00,34.3,32.5,30.31,NE,45,2.0,5.0,93,0.00,,,0.00,WeatherCatV1.02B3,2013-02-09 10:45:00,
2013-02-09 04:50:00,34.3,32.5,30.31,NE,40,4.0,4.0,93,0.00,,,0.00,WeatherCatV1.02B3,2013-02-09 10:50:00,
2013-02-09 04:55:00,34.2,32.4,30.31,NE,49,3.0,6.0,93,0.00,,,0.00,WeatherCatV1.02B3,2013-02-09 10:55:00,
2013-02-09 05:00:00,34.1,32.0,30.30,NE,46,2.0,6.0,92,0.00,,,0.00,WeatherCatV1.02B3,2013-02-09 11:00:00,
2013-02-09 05:05:00,34.1,32.0,30.29,NE,56,4.0,4.0,92,0.00,,,0.00,WeatherCatV1.02B3,2013-02-09 11:05:00,
2013-02-09 05:10:00,33.9,31.8,30.29,NNE,32,4.0,6.0,92,0.00,,,0.00,WeatherCatV1.02B3,2013-02-09 11:10:00,
2013-02-09 05:15:00,33.9,32.1,30.29,ENE,58,5.0,8.0,93,0.00,,,0.00,WeatherCatV1.02B3,2013-02-09 11:15:00,
2013-02-09 05:20:00,33.8,32.0,30.29,ENE,61,4.0,5.0,93,0.00,,,0.00,WeatherCatV1.02B3,2013-02-09 11:20:00,
2013-02-09 05:25:00,33.8,32.0,30.29,NE,46,3.0,4.0,93,0.00,,,0.00,WeatherCatV1.02B3,2013-02-09 11:25:00,
2013-02-09 05:30:00,33.9,32.1,30.29,NE,48,2.0,5.0,93,0.00,,,0.00,WeatherCatV1.02B3,2013-02-09 11:30:00,
2013-02-09 05:35:00,33.9,32.1,30.30,NE,46,5.0,5.0,93,0.00,,,0.00,WeatherCatV1.02B3,2013-02-09 11:35:00,
2013-02-09 05:40:00,33.9,32.1,30.30,NE,49,2.0,9.0,93,0.00,,,0.00,WeatherCatV1.02B3,2013-02-09 11:40:00,
2013-02-09 05:45:00,33.9,32.1,30.29,NE,46,3.0,5.0,93,0.00,,,0.00,WeatherCatV1.02B3,2013-02-09 11:45:00,
2013-02-09 05:50:00,33.9,32.1,30.29,NE,53,4.0,5.0,93,0.00,,,0.00,WeatherCatV1.02B3,2013-02-09 11:50:00,
2013-02-09 05:55:00,33.9,32.1,30.29,NE,47,3.0,5.0,93,0.00,,,0.00,WeatherCatV1.02B3,2013-02-09 11:55:00,
2013-02-09 06:00:00,33.9,32.1,30.29,NE,56,4.0,8.0,93,0.00,,,0.00,WeatherCatV1.02B3,2013-02-09 12:00:00,
2013-02-09 06:05:00,33.9,32.1,30.29,NE,37,2.0,5.0,93,0.00,,,0.00,WeatherCatV1.02B3,2013-02-09 12:05:00,
2013-02-09 06:10:00,33.9,31.8,30.30,NE,53,2.0,5.0,92,0.00,,,0.00,WeatherCatV1.02B3,2013-02-09 12:10:00,
2013-02-09 06:15:00,33.9,31.8,30.30,NE,51,0.0,4.0,92,0.00,,,0.00,WeatherCatV1.02B3,2013-02-09 12:15:00,
2013-02-09 06:20:00,33.9,31.8,30.30,ENE,59,3.0,4.0,92,0.00,,,0.00,WeatherCatV1.02B3,2013-02-09 12:20:00,
2013-02-09 06:25:00,33.8,31.7,30.30,NE,51,0.0,3.0,92,0.00,,,0.00,WeatherCatV1.02B3,2013-02-09 12:25:00,
2013-02-09 06:30:00,33.7,31.6,30.30,ENE,74,0.0,4.0,92,0.00,,,0.00,WeatherCatV1.02B3,2013-02-09 12:30:00,
2013-02-09 06:35:00,33.7,31.6,30.29,ENE,68,0.0,3.0,92,0.00,,,0.00,WeatherCatV1.02B3,2013-02-09 12:35:00,
2013-02-09 06:40:00,33.7,31.9,30.30,NE,46,0.0,3.0,93,0.00,,,0.00,WeatherCatV1.02B3,2013-02-09 12:40:00,
2013-02-09 06:45:00,33.7,31.9,30.30,NE,42,0.0,3.0,93,0.00,,,0.00,WeatherCatV1.02B3,2013-02-09 12:45:00,
2013-02-09 06:50:00,33.7,31.9,30.30,ENE,65,2.0,3.0,93,0.00,,,0.00,WeatherCatV1.02B3,2013-02-09 12:50:00,
2013-02-09 06:55:00,33.7,31.9,30.29,ENE,61,2.0,5.0,93,0.00,,,0.00,WeatherCatV1.02B3,2013-02-09 12:55:00,
2013-02-09 07:00:00,33.8,32.0,30.29,ENE,75,4.0,6.0,93,0.00,,,0.00,WeatherCatV1.02B3,2013-02-09 13:00:00,
2013-02-09 07:05:00,33.8,32.0,30.29,East,80,2.0,2.0,93,0.00,,,0.00,WeatherCatV1.02B3,2013-02-09 13:05:00,
2013-02-09 07:10:00,34.0,32.2,30.29,East,82,1.0,5.0,93,0.00,,,0.00,WeatherCatV1.02B3,2013-02-09 13:10:00,
2013-02-09 07:15:00,34.1,32.0,30.29,ENE,57,0.0,5.0,92,0.00,,,0.00,WeatherCatV1.02B3,2013-02-09 13:15:00,
2013-02-09 07:20:00,34.3,32.5,30.30,ENE,74,3.0,8.0,93,0.00,,,0.00,WeatherCatV1.02B3,2013-02-09 13:20:00,
2013-02-09 07:25:00,34.5,32.4,30.30,ENE,68,4.0,5.0,92,0.00,,,0.00,WeatherCatV1.02B3,2013-02-09 13:25:00,
2013-02-09 07:30:00,34.6,32.5,30.31,NE,55,4.0,4.0,92,0.00,,,0.00,WeatherCatV1.02B3,2013-02-09 13:30:00,
2013-02-09 07:35:00,34.7,32.6,30.31,ENE,60,4.0,5.0,92,0.00,,,0.00,WeatherCatV1.02B3,2013-02-09 13:35:00,
2013-02-09 07:40:00,34.8,32.7,30.31,NE,39,2.0,4.0,92,0.00,,,0.00,WeatherCatV1.02B3,2013-02-09 13:40:00,
2013-02-09 07:45:00,34.9,32.8,30.32,NE,34,4.0,6.0,92,0.00,,,0.00,WeatherCatV1.02B3,2013-02-09 13:45:00,
2013-02-09 07:50:00,35.0,32.9,30.32,ENE,61,7.0,7.0,92,0.00,,,0.00,WeatherCatV1.02B3,2013-02-09 13:50:00,
2013-02-09 07:55:00,35.1,32.7,30.31,ENE,59,5.0,7.0,91,0.00,,,0.00,WeatherCatV1.02B3,2013-02-09 13:55:00,
2013-02-09 08:00:00,35.2,33.1,30.31,NE,51,6.0,7.0,92,0.00,,,0.00,WeatherCatV1.02B3,2013-02-09 14:00:00,
2013-02-09 08:05:00,35.2,33.1,30.32,NE,41,3.0,4.0,92,0.00,,,0.00,WeatherCatV1.02B3,2013-02-09 14:05:00,
2013-02-09 08:10:00,35.3,32.9,30.32,NE,45,6.0,7.0,91,0.00,,,0.00,WeatherCatV1.02B3,2013-02-09 14:10:00,
2013-02-09 08:15:00,35.5,33.4,30.33,NE,49,3.0,6.0,92,0.00,,,0.00,WeatherCatV1.02B3,2013-02-09 14:15:00,
2013-02-09 08:20:00,35.6,33.2,30.32,East,79,3.0,6.0,91,0.00,,,0.00,WeatherCatV1.02B3,2013-02-09 14:20:00,
2013-02-09 08:25:00,35.8,33.4,30.31,NE,40,6.0,8.0,91,0.00,,,0.00,WeatherCatV1.02B3,2013-02-09 14:25:00,
2013-02-09 08:30:00,36.1,33.7,30.31,NE,51,7.0,8.0,91,0.00,,,0.00,WeatherCatV1.02B3,2013-02-09 14:30:00,
2013-02-09 08:35:00,36.4,34.0,30.31,ENE,66,9.0,9.0,91,0.00,,,0.00,WeatherCatV1.02B3,2013-02-09 14:35:00,
2013-02-09 08:40:00,36.8,34.4,30.31,NE,45,10.0,10.0,91,0.00,,,0.00,WeatherCatV1.02B3,2013-02-09 14:40:00,
2013-02-09 08:45:00,37.2,34.8,30.32,ENE,76,3.0,7.0,91,0.00,,,0.00,WeatherCatV1.02B3,2013-02-09 14:45:00,
2013-02-09 08:50:00,37.5,34.8,30.32,ENE,57,7.0,10.0,90,0.00,,,0.00,WeatherCatV1.02B3,2013-02-09 14:50:00,
2013-02-09 08:55:00,37.7,35.0,30.32,ENE,64,5.0,8.0,90,0.00,,,0.00,WeatherCatV1.02B3,2013-02-09 14:55:00,
2013-02-09 09:00:00,37.9,35.0,30.32,ENE,65,5.0,8.0,89,0.00,,,0.00,WeatherCatV1.02B3,2013-02-09 15:00:00,
2013-02-09 09:05:00,38.0,34.8,30.32,ESE,109,3.0,9.0,88,0.00,,,0.00,WeatherCatV1.02B3,2013-02-09 15:05:00,
2013-02-09 09:10:00,38.1,34.9,30.32,ENE,61,4.0,8.0,88,0.00,,,0.00,WeatherCatV1.02B3,2013-02-09 15:10:00,
2013-02-09 09:15:00,38.2,35.0,30.32,East,90,6.0,7.0,88,0.00,,,0.00,WeatherCatV1.02B3,2013-02-09 15:15:00,
2013-02-09 09:20:00,38.5,35.3,30.32,NE,44,5.0,8.0,88,0.00,,,0.00,WeatherCatV1.02B3,2013-02-09 15:20:00,
2013-02-09 09:25:00,38.7,35.5,30.33,ESE,106,5.0,8.0,88,0.00,,,0.00,WeatherCatV1.02B3,2013-02-09 15:25:00,
2013-02-09 09:30:00,38.9,35.4,30.32,East,91,8.0,8.0,87,0.00,,,0.00,WeatherCatV1.02B3,2013-02-09 15:30:00,
2013-02-09 09:35:00,39.1,35.3,30.32,ESE,121,4.0,9.0,86,0.00,,,0.00,WeatherCatV1.02B3,2013-02-09 15:35:00,
2013-02-09 09:40:00,39.3,35.2,30.33,East,80,7.0,8.0,85,0.00,,,0.00,WeatherCatV1.02B3,2013-02-09 15:40:00,
2013-02-09 09:45:00,39.5,35.4,30.33,East,85,1.0,7.0,85,0.00,,,0.00,WeatherCatV1.02B3,2013-02-09 15:45:00,
2013-02-09 09:50:00,40.0,35.9,30.32,East,80,6.0,8.0,85,0.00,,,0.00,WeatherCatV1.02B3,2013-02-09 15:50:00,
2013-02-09 09:55:00,40.2,35.8,30.31,ESE,105,8.0,8.0,84,0.00,,,0.00,WeatherCatV1.02B3,2013-02-09 15:55:00,
2013-02-09 10:00:00,40.4,36.0,30.32,East,80,5.0,6.0,84,0.00,,,0.00,WeatherCatV1.02B3,2013-02-09 16:00:00,
2013-02-09 10:05:00,40.7,36.2,30.31,ESE,111,5.0,8.0,84,0.00,,,0.00,WeatherCatV1.02B3,2013-02-09 16:05:00,
2013-02-09 10:10:00,41.1,36.6,30.31,NE,48,4.0,8.0,84,0.00,,,0.00,WeatherCatV1.02B3,2013-02-09 16:10:00,
2013-02-09 10:15:00,41.4,36.6,30.31,East,90,9.0,9.0,83,0.00,,,0.00,WeatherCatV1.02B3,2013-02-09 16:15:00,
2013-02-09 10:20:00,41.5,36.7,30.32,ENE,74,4.0,9.0,83,0.00,,,0.00,WeatherCatV1.02B3,2013-02-09 16:20:00,
2013-02-09 10:25:00,41.8,37.0,30.32,East,95,8.0,9.0,83,0.00,,,0.00,WeatherCatV1.02B3,2013-02-09 16:25:00,
2013-02-09 10:30:00,42.3,37.5,30.32,ENE,72,7.0,7.0,83,0.00,,,0.00,WeatherCatV1.02B3,2013-02-09 16:30:00,
2013-02-09 10:35:00,42.7,37.3,30.32,ESE,107,3.0,7.0,81,0.00,,,0.00,WeatherCatV1.02B3,2013-02-09 16:35:00,
2013-02-09 10:40:00,42.9,37.2,30.31,East,92,3.0,7.0,80,0.00,,,0.00,WeatherCatV1.02B3,2013-02-09 16:40:00,
2013-02-09 10:45:00,43.3,36.9,30.31,NE,53,3.0,9.0,78,0.00,,,0.00,WeatherCatV1.02B3,2013-02-09 16:45:00,
2013-02-09 10:50:00,43.5,37.1,30.30,ENE,59,5.0,9.0,78,0.00,,,0.00,WeatherCatV1.02B3,2013-02-09 16:50:00,
2013-02-09 10:55:00,43.8,37.4,30.30,ENE,63,3.0,8.0,78,0.00,,,0.00,WeatherCatV1.02B3,2013-02-09 16:55:00,
2013-02-09 11:00:00,44.0,36.9,30.30,East,96,5.0,10.0,76,0.00,,,0.00,WeatherCatV1.02B3,2013-02-09 17:00:00,
2013-02-09 11:05:00,44.4,38.0,30.30,ENE,63,2.0,9.0,78,0.00,,,0.00,WeatherCatV1.02B3,2013-02-09 17:05:00,
2013-02-09 11:10:00,44.7,37.6,30.30,ESE,121,3.0,10.0,76,0.00,,,0.00,WeatherCatV1.02B3,2013-02-09 17:10:00,
2013-02-09 11:15:00,44.8,37.4,30.30,ENE,78,3.0,8.0,75,0.00,,,0.00,WeatherCatV1.02B3,2013-02-09 17:15:00,
2013-02-09 11:20:00,44.8,37.4,30.30,East,80,6.0,8.0,75,0.00,,,0.00,WeatherCatV1.02B3,2013-02-09 17:20:00,
2013-02-09 11:25:00,44.8,38.0,30.29,ENE,78,3.0,7.0,77,0.00,,,0.00,WeatherCatV1.02B3,2013-02-09 17:25:00,
2013-02-09 11:30:00,45.2,38.1,30.29,ESE,105,4.0,7.0,76,0.00,,,0.00,WeatherCatV1.02B3,2013-02-09 17:30:00,
2013-02-09 11:35:00,45.4,37.6,30.29,ESE,119,4.0,7.0,74,0.00,,,0.00,WeatherCatV1.02B3,2013-02-09 17:35:00,
2013-02-09 11:40:00,45.5,38.0,30.29,East,98,3.0,3.0,75,0.00,,,0.00,WeatherCatV1.02B3,2013-02-09 17:40:00,
2013-02-09 11:45:00,45.9,38.1,30.28,ESE,107,5.0,8.0,74,0.00,,,0.00,WeatherCatV1.02B3,2013-02-09 17:45:00,
2013-02-09 11:50:00,46.2,38.0,30.28,ESE,115,2.0,6.0,73,0.00,,,0.00,WeatherCatV1.02B3,2013-02-09 17:50:00,
2013-02-09 11:55:00,46.4,37.9,30.27,ESE,108,4.0,8.0,72,0.00,,,0.00,WeatherCatV1.02B3,2013-02-09 17:55:00,
2013-02-09 12:00:00,46.6,38.1,30.27,ESE,115,2.0,5.0,72,0.00,,,0.00,WeatherCatV1.02B3,2013-02-09 18:00:00,
2013-02-09 12:05:00,47.0,38.1,30.27,East,84,5.0,9.0,71,0.00,,,0.00,WeatherCatV1.02B3,2013-02-09 18:05:00,
2013-02-09 12:10:00,47.1,38.5,30.26,East,83,5.0,7.0,72,0.00,,,0.00,WeatherCatV1.02B3,2013-02-09 18:10:00,
2013-02-09 12:15:00,47.3,38.7,30.26,ENE,59,1.0,4.0,72,0.00,,,0.00,WeatherCatV1.02B3,2013-02-09 18:15:00,
2013-02-09 12:20:00,47.7,38.4,30.26,SSE,148,1.0,3.0,70,0.00,,,0.00,WeatherCatV1.02B3,2013-02-09 18:20:00,
2013-02-09 12:25:00,47.8,38.5,30.25,East,98,9.0,9.0,70,0.00,,,0.00,WeatherCatV1.02B3,2013-02-09 18:25:00,
2013-02-09 12:30:00,47.6,38.7,30.25,ENE,68,0.0,1.0,71,0.00,,,0.00,WeatherCatV1.02B3,2013-02-09 18:30:00,
2013-02-09 12:35:00,47.9,39.3,30.24,SE,144,0.0,4.0,72,0.00,,,0.00,WeatherCatV1.02B3,2013-02-09 18:35:00,
2013-02-09 12:40:00,48.7,39.0,30.24,SSW,192,3.0,3.0,69,0.00,,,0.00,WeatherCatV1.02B3,2013-02-09 18:40:00,
2013-02-09 12:45:00,49.2,39.5,30.24,ESE,123,4.0,4.0,69,0.00,,,0.00,WeatherCatV1.02B3,2013-02-09 18:45:00,
2013-02-09 12:50:00,49.2,38.7,30.23,ESE,115,0.0,3.0,67,0.00,,,0.00,WeatherCatV1.02B3,2013-02-09 18:50:00,
2013-02-09 12:55:00,49.2,39.5,30.23,East,101,5.0,8.0,69,0.00,,,0.00,WeatherCatV1.02B3,2013-02-09 18:55:00,
2013-02-09 13:00:00,49.5,39.8,30.22,East,94,8.0,9.0,69,0.00,,,0.00,WeatherCatV1.02B3,2013-02-09 19:00:00,
2013-02-09 13:05:00,49.8,39.7,30.22,SSW,203,3.0,5.0,68,0.00,,,0.00,WeatherCatV1.02B3,2013-02-09 19:05:00,
2013-02-09 13:10:00,50.7,40.9,30.21,ENE,67,5.0,8.0,69,0.00,,,0.00,WeatherCatV1.02B3,2013-02-09 19:10:00,
2013-02-09 13:15:00,51.0,40.4,30.20,ENE,77,7.0,8.0,67,0.00,,,0.00,WeatherCatV1.02B3,2013-02-09 19:15:00,
2013-02-09 13:20:00,51.1,40.9,30.20,ESE,107,9.0,9.0,68,0.00,,,0.00,WeatherCatV1.02B3,2013-02-09 19:20:00,
2013-02-09 13:25:00,51.2,40.6,30.20,ENE,75,7.0,10.0,67,0.00,,,0.00,WeatherCatV1.02B3,2013-02-09 19:25:00,
2013-02-09 13:30:00,51.5,40.5,30.19,ESE,107,2.0,6.0,66,0.00,,,0.00,WeatherCatV1.02B3,2013-02-09 19:30:00,
2013-02-09 13:35:00,52.1,41.9,30.19,ESE,113,4.0,8.0,68,0.00,,,0.00,WeatherCatV1.02B3,2013-02-09 19:35:00,
2013-02-09 13:40:00,52.9,41.5,30.19,ENE,59,7.0,9.0,65,0.00,,,0.00,WeatherCatV1.02B3,2013-02-09 19:40:00,
2013-02-09 13:45:00,53.1,40.8,30.18,East,101,5.0,5.0,63,0.00,,,0.00,WeatherCatV1.02B3,2013-02-09 19:45:00,
2013-02-09 13:50:00,53.1,40.8,30.18,East,90,7.0,8.0,63,0.00,,,0.00,WeatherCatV1.02B3,2013-02-09 19:50:00,
2013-02-09 13:55:00,53.0,40.7,30.18,East,94,7.0,7.0,63,0.00,,,0.00,WeatherCatV1.02B3,2013-02-09 19:55:00,
2013-02-09 14:00:00,53.1,40.8,30.18,East,98,2.0,3.0,63,0.00,,,0.00,WeatherCatV1.02B3,2013-02-09 20:00:00,
2013-02-09 14:05:00,53.5,40.4,30.18,East,80,7.0,9.0,61,0.00,,,0.00,WeatherCatV1.02B3,2013-02-09 20:05:00,
2013-02-09 14:10:00,53.8,39.8,30.17,ESE,111,5.0,10.0,59,0.00,,,0.00,WeatherCatV1.02B3,2013-02-09 20:10:00,
2013-02-09 14:15:00,53.9,40.3,30.18,East,84,2.0,7.0,60,0.00,,,0.00,WeatherCatV1.02B3,2013-02-09 20:15:00,
2013-02-09 14:20:00,54.2,40.2,30.17,ESE,119,4.0,8.0,59,0.00,,,0.00,WeatherCatV1.02B3,2013-02-09 20:20:00,
2013-02-09 14:25:00,54.2,39.7,30.17,East,96,8.0,8.0,58,0.00,,,0.00,WeatherCatV1.02B3,2013-02-09 20:25:00,
2013-02-09 14:30:00,54.0,39.6,30.17,East,101,5.0,9.0,58,0.00,,,0.00,WeatherCatV1.02B3,2013-02-09 20:30:00,
2013-02-09 14:35:00,53.9,39.9,30.17,East,98,6.0,9.0,59,0.00,,,0.00,WeatherCatV1.02B3,2013-02-09 20:35:00,
2013-02-09 14:40:00,53.8,39.4,30.17,ESE,121,3.0,5.0,58,0.00,,,0.00,WeatherCatV1.02B3,2013-02-09 20:40:00,
2013-02-09 14:45:00,53.8,38.9,30.16,East,92,7.0,9.0,57,0.00,,,0.00,WeatherCatV1.02B3,2013-02-09 20:45:00,
2013-02-09 14:50:00,54.0,39.1,30.16,ESE,103,5.0,7.0,57,0.00,,,0.00,WeatherCatV1.02B3,2013-02-09 20:50:00,
2013-02-09 14:55:00,54.0,39.1,30.16,ESE,102,5.0,7.0,57,0.00,,,0.00,WeatherCatV1.02B3,2013-02-09 20:55:00,
2013-02-09 15:00:00,54.0,39.1,30.16,ESE,115,5.0,6.0,57,0.00,,,0.00,WeatherCatV1.02B3,2013-02-09 21:00:00,
2013-02-09 15:05:00,54.1,38.8,30.15,East,86,6.0,7.0,56,0.00,,,0.00,WeatherCatV1.02B3,2013-02-09 21:05:00,
2013-02-09 15:10:00,54.3,38.9,30.15,ESE,122,7.0,7.0,56,0.00,,,0.00,WeatherCatV1.02B3,2013-02-09 21:10:00,
2013-02-09 15:15:00,54.6,39.2,30.15,ESE,103,3.0,8.0,56,0.00,,,0.00,WeatherCatV1.02B3,2013-02-09 21:15:00,
2013-02-09 15:20:00,55.0,39.1,30.15,East,88,5.0,9.0,55,0.00,,,0.00,WeatherCatV1.02B3,2013-02-09 21:20:00,
2013-02-09 15:25:00,55.2,38.8,30.15,ESE,111,2.0,5.0,54,0.00,,,0.00,WeatherCatV1.02B3,2013-02-09 21:25:00,
2013-02-09 15:30:00,55.3,38.5,30.15,East,98,7.0,9.0,53,0.00,,,0.00,WeatherCatV1.02B3,2013-02-09 21:30:00,
2013-02-09 15:35:00,55.3,38.5,30.15,East,79,3.0,9.0,53,0.00,,,0.00,WeatherCatV1.02B3,2013-02-09 21:35:00,
2013-02-09 15:40:00,55.3,39.4,30.15,SE,126,4.0,6.0,55,0.00,,,0.00,WeatherCatV1.02B3,2013-02-09 21:40:00,
2013-02-09 15:45:00,55.4,39.0,30.14,NE,47,6.0,7.0,54,0.00,,,0.00,WeatherCatV1.02B3,2013-02-09 21:45:00,
2013-02-09 15:50:00,55.1,38.8,30.14,ESE,109,4.0,10.0,54,0.00,,,0.00,WeatherCatV1.02B3,2013-02-09 21:50:00,
2013-02-09 15:55:00,55.0,39.6,30.13,East,101,3.0,6.0,56,0.00,,,0.00,WeatherCatV1.02B3,2013-02-09 21:55:00,
2013-02-09 16:00:00,54.9,39.5,30.13,ESE,119,2.0,4.0,56,0.00,,,0.00,WeatherCatV1.02B3,2013-02-09 22:00:00,
2013-02-09 16:05:00,55.0,39.1,30.13,East,101,5.0,5.0,55,0.00,,,0.00,WeatherCatV1.02B3,2013-02-09 22:05:00,
2013-02-09 16:10:00,55.0,39.1,30.13,ESE,113,4.0,7.0,55,0.00,,,0.00,WeatherCatV1.02B3,2013-02-09 22:10:00,
2013-02-09 16:15:00,54.9,39.0,30.13,ESE,117,4.0,7.0,55,0.00,,,0.00,WeatherCatV1.02B3,2013-02-09 22:15:00,
2013-02-09 16:20:00,54.9,39.0,30.13,East,96,5.0,6.0,55,0.00,,,0.00,WeatherCatV1.02B3,2013-02-09 22:20:00,
2013-02-09 16:25:00,54.8,39.4,30.12,ESE,116,3.0,4.0,56,0.00,,,0.00,WeatherCatV1.02B3,2013-02-09 22:25:00,
2013-02-09 16:30:00,54.7,38.9,30.12,ESE,121,2.0,6.0,55,0.00,,,0.00,WeatherCatV1.02B3,2013-02-09 22:30:00,
2013-02-09 16:35:00,54.7,39.3,30.12,ENE,67,5.0,6.0,56,0.00,,,0.00,WeatherCatV1.02B3,2013-02-09 22:35:00,
2013-02-09 16:40:00,54.8,39.9,30.12,ENE,69,0.0,4.0,57,0.00,,,0.00,WeatherCatV1.02B3,2013-02-09 22:40:00,
2013-02-09 16:45:00,54.7,40.2,30.12,ENE,77,1.0,2.0,58,0.00,,,0.00,WeatherCatV1.02B3,2013-02-09 22:45:00,
2013-02-09 16:50:00,54.7,40.2,30.11,East,80,2.0,3.0,58,0.00,,,0.00,WeatherCatV1.02B3,2013-02-09 22:50:00,
2013-02-09 16:55:00,54.6,40.6,30.12,East,80,2.0,3.0,59,0.00,,,0.00,WeatherCatV1.02B3,2013-02-09 22:55:00,
2013-02-09 17:00:00,54.5,40.5,30.12,East,81,3.0,3.0,59,0.00,,,0.00,WeatherCatV1.02B3,2013-02-09 23:00:00,
2013-02-09 17:05:00,54.5,40.5,30.12,East,84,0.0,2.0,59,0.00,,,0.00,WeatherCatV1.02B3,2013-02-09 23:05:00,
2013-02-09 17:10:00,54.4,40.4,30.12,East,84,0.0,1.0,59,0.00,,,0.00,WeatherCatV1.02B3,2013-02-09 23:10:00,
2013-02-09 17:15:00,54.2,40.2,30.12,East,84,0.0,0.0,59,0.00,,,0.00,WeatherCatV1.02B3,2013-02-09 23:15:00,
2013-02-09 17:20:00,54.2,40.2,30.12,East,84,0.0,0.0,59,0.00,,,0.00,WeatherCatV1.02B3,2013-02-09 23:20:00,
2013-02-09 17:25:00,54.1,40.1,30.13,East,84,0.0,0.0,59,0.00,,,0.00,WeatherCatV1.02B3,2013-02-09 23:25:00,
2013-02-09 17:30:00,54.0,40.0,30.13,East,84,0.0,0.0,59,0.00,,,0.00,WeatherCatV1.02B3,2013-02-09 23:30:00,
2013-02-09 17:35:00,53.9,40.3,30.13,East,84,0.0,0.0,60,0.00,,,0.00,WeatherCatV1.02B3,2013-02-09 23:35:00,
2013-02-09 17:40:00,53.9,40.8,30.12,East,84,0.0,0.0,61,0.00,,,0.00,WeatherCatV1.02B3,2013-02-09 23:40:00,
2013-02-09 17:45:00,53.8,40.7,30.12,East,84,0.0,0.0,61,0.00,,,0.00,WeatherCatV1.02B3,2013-02-09 23:45:00,
2013-02-09 17:50:00,53.7,41.8,30.12,East,84,0.0,0.0,64,0.00,,,0.00,WeatherCatV1.02B3,2013-02-09 23:50:00,
2013-02-09 17:55:00,53.5,41.6,30.12,East,84,0.0,0.0,64,0.00,,,0.00,WeatherCatV1.02B3,2013-02-09 23:55:00,
2013-02-09 18:00:00,53.3,42.2,30.12,East,84,0.0,1.0,66,0.00,,,0.00,WeatherCatV1.02B3,2013-02-10 00:00:00,
2013-02-09 18:05:00,53.1,43.6,30.11,East,84,0.0,1.0,70,0.00,,,0.00,WeatherCatV1.02B3,2013-02-10 00:05:00,
2013-02-09 18:10:00,52.9,42.6,30.10,East,84,0.0,0.0,68,0.00,,,0.00,WeatherCatV1.02B3,2013-02-10 00:10:00,
2013-02-09 18:15:00,52.6,40.8,30.11,East,84,0.0,1.0,64,0.00,,,0.00,WeatherCatV1.02B3,2013-02-10 00:15:00,
2013-02-09 18:20:00,52.6,41.6,30.11,East,84,0.0,0.0,66,0.00,,,0.00,WeatherCatV1.02B3,2013-02-10 00:20:00,
2013-02-09 18:25:00,52.5,41.5,30.11,East,84,0.0,0.0,66,0.00,,,0.00,WeatherCatV1.02B3,2013-02-10 00:25:00,
2013-02-09 18:30:00,52.5,42.2,30.10,East,84,2.0,3.0,68,0.00,,,0.00,WeatherCatV1.02B3,2013-02-10 00:30:00,
2013-02-09 18:35:00,52.4,41.4,30.10,NE,53,1.0,5.0,66,0.00,,,0.00,WeatherCatV1.02B3,2013-02-10 00:35:00,
2013-02-09 18:40:00,52.4,41.0,30.10,NE,53,0.0,3.0,65,0.00,,,0.00,WeatherCatV1.02B3,2013-02-10 00:40:00,
2013-02-09 18:45:00,52.4,41.4,30.10,NE,53,2.0,3.0,66,0.00,,,0.00,WeatherCatV1.02B3,2013-02-10 00:45:00,
2013-02-09 18:50:00,52.4,41.4,30.10,NE,53,1.0,2.0,66,0.00,,,0.00,WeatherCatV1.02B3,2013-02-10 00:50:00,
2013-02-09 18:55:00,52.3,41.3,30.11,NE,53,1.0,3.0,66,0.00,,,0.00,WeatherCatV1.02B3,2013-02-10 00:55:00,
2013-02-09 19:00:00,52.3,42.1,30.10,NE,53,4.0,4.0,68,0.00,,,0.00,WeatherCatV1.02B3,2013-02-10 01:00:00,
2013-02-09 19:05:00,52.2,42.3,30.10,NE,53,0.0,1.0,69,0.00,,,0.00,WeatherCatV1.02B3,2013-02-10 01:05:00,
2013-02-09 19:10:00,52.1,41.9,30.11,NE,53,0.0,1.0,68,0.00,,,0.00,WeatherCatV1.02B3,2013-02-10 01:10:00,
2013-02-09 19:15:00,52.1,42.2,30.10,NE,53,0.0,1.0,69,0.00,,,0.00,WeatherCatV1.02B3,2013-02-10 01:15:00,
2013-02-09 19:20:00,52.0,42.1,30.10,East,86,5.0,5.0,69,0.00,,,0.00,WeatherCatV1.02B3,2013-02-10 01:20:00,
2013-02-09 19:25:00,51.9,42.1,30.09,ESE,102,5.0,6.0,69,0.00,,,0.00,WeatherCatV1.02B3,2013-02-10 01:25:00,
2013-02-09 19:30:00,52.0,41.8,30.09,ESE,107,2.0,3.0,68,0.00,,,0.00,WeatherCatV1.02B3,2013-02-10 01:30:00,
2013-02-09 19:35:00,52.1,41.5,30.09,ESE,107,3.0,6.0,67,0.00,,,0.00,WeatherCatV1.02B3,2013-02-10 01:35:00,
2013-02-09 19:40:00,52.2,41.6,30.09,ESE,109,4.0,5.0,67,0.00,,,0.00,WeatherCatV1.02B3,2013-02-10 01:40:00,
2013-02-09 19:45:00,52.3,41.3,30.09,East,82,5.0,6.0,66,0.00,,,0.00,WeatherCatV1.02B3,2013-02-10 01:45:00,
2013-02-09 19:50:00,52.4,41.0,30.10,East,88,1.0,3.0,65,0.00,,,0.00,WeatherCatV1.02B3,2013-02-10 01:50:00,
2013-02-09 19:55:00,52.5,41.5,30.10,ESE,103,4.0,5.0,66,0.00,,,0.00,WeatherCatV1.02B3,2013-02-10 01:55:00,
2013-02-09 20:00:00,52.6,41.6,30.09,East,92,5.0,5.0,66,0.00,,,0.00,WeatherCatV1.02B3,2013-02-10 02:00:00,
2013-02-09 20:05:00,52.6,41.2,30.10,East,82,1.0,6.0,65,0.00,,,0.00,WeatherCatV1.02B3,2013-02-10 02:05:00,
2013-02-09 20:10:00,52.7,41.3,30.10,East,100,3.0,7.0,65,0.00,,,0.00,WeatherCatV1.02B3,2013-02-10 02:10:00,
2013-02-09 20:15:00,52.7,41.7,30.10,East,86,6.0,6.0,66,0.00,,,0.00,WeatherCatV1.02B3,2013-02-10 02:15:00,
2013-02-09 20:20:00,52.7,41.7,30.10,East,90,3.0,5.0,66,0.00,,,0.00,WeatherCatV1.02B3,2013-02-10 02:20:00,
2013-02-09 20:25:00,52.6,41.6,30.09,East,93,3.0,5.0,66,0.00,,,0.00,WeatherCatV1.02B3,2013-02-10 02:25:00,
2013-02-09 20:30:00,52.6,41.6,30.10,East,94,2.0,6.0,66,0.00,,,0.00,WeatherCatV1.02B3,2013-02-10 02:30:00,
2013-02-09 20:35:00,52.5,41.9,30.10,ESE,103,3.0,3.0,67,0.00,,,0.00,WeatherCatV1.02B3,2013-02-10 02:35:00,
2013-02-09 20:40:00,52.4,41.8,30.10,East,101,3.0,5.0,67,0.00,,,0.00,WeatherCatV1.02B3,2013-02-10 02:40:00,
2013-02-09 20:45:00,52.4,41.8,30.10,ESE,103,1.0,2.0,67,0.00,,,0.00,WeatherCatV1.02B3,2013-02-10 02:45:00,
2013-02-09 20:50:00,52.5,41.9,30.10,East,98,2.0,5.0,67,0.00,,,0.00,WeatherCatV1.02B3,2013-02-10 02:50:00,
2013-02-09 20:55:00,52.6,42.0,30.10,East,89,1.0,5.0,67,0.00,,,0.00,WeatherCatV1.02B3,2013-02-10 02:55:00,
2013-02-09 21:00:00,52.7,42.1,30.10,East,92,2.0,5.0,67,0.00,,,0.00,WeatherCatV1.02B3,2013-02-10 03:00:00,
2013-02-09 21:05:00,52.7,42.1,30.10,ESE,113,3.0,5.0,67,0.00,,,0.00,WeatherCatV1.02B3,2013-02-10 03:05:00,
2013-02-09 21:10:00,52.7,41.7,30.10,East,101,3.0,6.0,66,0.00,,,0.00,WeatherCatV1.02B3,2013-02-10 03:10:00,
2013-02-09 21:15:00,52.8,41.8,30.10,East,82,2.0,4.0,66,0.00,,,0.00,WeatherCatV1.02B3,2013-02-10 03:15:00,
2013-02-09 21:20:00,52.7,41.7,30.10,East,94,1.0,6.0,66,0.00,,,0.00,WeatherCatV1.02B3,2013-02-10 03:20:00,
2013-02-09 21:25:00,52.7,42.1,30.10,ESE,103,3.0,3.0,67,0.00,,,0.00,WeatherCatV1.02B3,2013-02-10 03:25:00,
2013-02-09 21:30:00,52.6,41.6,30.09,ESE,103,3.0,6.0,66,0.00,,,0.00,WeatherCatV1.02B3,2013-02-10 03:30:00,
2013-02-09 21:35:00,52.6,41.6,30.09,East,86,5.0,6.0,66,0.00,,,0.00,WeatherCatV1.02B3,2013-02-10 03:35:00,
2013-02-09 21:40:00,52.7,41.7,30.09,East,100,5.0,7.0,66,0.00,,,0.00,WeatherCatV1.02B3,2013-02-10 03:40:00,
2013-02-09 21:45:00,52.7,41.7,30.09,East,100,5.0,6.0,66,0.00,,,0.00,WeatherCatV1.02B3,2013-02-10 03:45:00,
2013-02-09 21:50:00,52.6,41.6,30.09,ESE,102,4.0,7.0,66,0.00,,,0.00,WeatherCatV1.02B3,2013-02-10 03:50:00,
2013-02-09 21:55:00,52.5,41.5,30.08,ESE,105,5.0,7.0,66,0.00,,,0.00,WeatherCatV1.02B3,2013-02-10 03:55:00,
2013-02-09 22:00:00,52.6,41.6,30.07,East,100,6.0,8.0,66,0.00,,,0.00,WeatherCatV1.02B3,2013-02-10 04:00:00,
2013-02-09 22:05:00,52.6,41.6,30.07,East,88,6.0,7.0,66,0.00,,,0.00,WeatherCatV1.02B3,2013-02-10 04:05:00,
2013-02-09 22:10:00,52.6,41.2,30.07,ESE,105,3.0,7.0,65,0.00,,,0.00,WeatherCatV1.02B3,2013-02-10 04:10:00,
2013-02-09 22:15:00,52.6,41.2,30.07,East,88,6.0,9.0,65,0.00,,,0.00,WeatherCatV1.02B3,2013-02-10 04:15:00,
2013-02-09 22:20:00,52.6,41.2,30.07,SE,124,6.0,8.0,65,0.00,,,0.00,WeatherCatV1.02B3,2013-02-10 04:20:00,
2013-02-09 22:25:00,52.6,41.2,30.07,ESE,120,5.0,8.0,65,0.00,,,0.00,WeatherCatV1.02B3,2013-02-10 04:25:00,
2013-02-09 22:30:00,52.7,41.3,30.07,ESE,121,5.0,7.0,65,0.00,,,0.00,WeatherCatV1.02B3,2013-02-10 04:30:00,
2013-02-09 22:35:00,52.7,41.3,30.06,SE,134,5.0,8.0,65,0.00,,,0.00,WeatherCatV1.02B3,2013-02-10 04:35:00,
2013-02-09 22:40:00,52.8,41.0,30.06,ESE,121,5.0,9.0,64,0.00,,,0.00,WeatherCatV1.02B3,2013-02-10 04:40:00,
2013-02-09 22:45:00,52.8,41.0,30.06,ESE,114,3.0,7.0,64,0.00,,,0.00,WeatherCatV1.02B3,2013-02-10 04:45:00,
2013-02-09 22:50:00,52.9,41.1,30.07,SSE,148,0.0,4.0,64,0.00,,,0.00,WeatherCatV1.02B3,2013-02-10 04:50:00,
2013-02-09 22:55:00,52.9,41.1,30.07,SSE,161,1.0,2.0,64,0.00,,,0.00,WeatherCatV1.02B3,2013-02-10 04:55:00,
2013-02-09 23:00:00,52.9,41.5,30.07,SSW,201,1.0,1.0,65,0.00,,,0.00,WeatherCatV1.02B3,2013-02-10 05:00:00,
2013-02-09 23:05:00,52.9,41.5,30.07,ESE,119,0.0,4.0,65,0.00,,,0.00,WeatherCatV1.02B3,2013-02-10 05:05:00,
2013-02-09 23:07:00,52.8,41.4,30.07,SSE,150,1.0,3.0,65,0.00,,,0.00,WeatherCatV1.02B3,2013-02-10 05:07:00,
2013-02-09 23:12:00,52.9,41.5,30.07,SE,138,2.0,6.0,65,0.00,,,0.00,WeatherCatV1.02B3,2013-02-10 05:12:00,
2013-02-09 23:17:00,52.9,41.5,30.06,SSE,161,2.0,5.0,65,0.00,,,0.00,WeatherCatV1.02B3,2013-02-10 05:17:00,
2013-02-09 23:22:00,52.9,41.5,30.07,SSE,160,4.0,4.0,65,0.00,,,0.00,WeatherCatV1.02B3,2013-02-10 05:22:00,
2013-02-09 23:27:00,53.0,41.6,30.07,SSE,149,2.0,4.0,65,0.00,,,0.00,WeatherCatV1.02B3,2013-02-10 05:27:00,
2013-02-09 23:32:00,53.1,41.2,30.06,ESE,117,4.0,5.0,64,0.00,,,0.00,WeatherCatV1.02B3,2013-02-10 05:32:00,
2013-02-09 23:37:00,53.2,41.3,30.06,SE,126,5.0,5.0,64,0.00,,,0.00,WeatherCatV1.02B3,2013-02-10 05:37:00,
2013-02-09 23:42:00,53.3,41.4,30.06,ESE,109,2.0,6.0,64,0.00,,,0.00,WeatherCatV1.02B3,2013-02-10 05:42:00,
2013-02-09 23:47:00,53.3,41.8,30.06,ESE,114,4.0,5.0,65,0.00,,,0.00,WeatherCatV1.02B3,2013-02-10 05:47:00,
2013-02-09 23:52:00,53.3,41.8,30.06,ESE,115,3.0,5.0,65,0.00,,,0.00,WeatherCatV1.02B3,2013-02-10 05:52:00,
2013-02-09 23:57:00,53.3,41.8,30.05,ESE,113,5.0,7.0,65,0.00,,,0.00,WeatherCatV1.02B3,2013-02-10 05:57:00,